GW0187 Weather Reports


time (UTC)temp
F
wind
direction
speed
knots
gust
knots
rain 1hr
in
rain 24hr
in
rain mn
in
humidity
%
barometer
mb
20260902060114 60 0 0.0 0.0 0.00 0.00 0.00 58 1014.9
20260902054602 60 0 0.0 0.0 0.00 0.00 0.00 57 1014.9
20260902053114 61 19 0.0 1.7 0.00 0.00 0.00 54 1014.9
20260902051556 63 21 0.0 1.7 0.00 0.00 0.00 51 1014.9
20260902050121 63 20 0.0 1.7 0.00 0.00 0.00 53 1014.9
20260902044606 63 0 0.0 0.0 0.00 0.00 0.00 52 1014.7
20260902043106 64 0 0.0 1.7 0.00 0.00 0.00 51 1014.5
20260902041554 65 0 0.0 1.7 0.00 0.00 0.00 49 1014.3
20260902040056 66 19 0.9 2.6 0.00 0.00 0.00 48 1014.1
20260902034557 66 0 0.0 2.6 0.00 0.00 0.00 48 1014.0
20260902033100 67 28 0.0 1.7 0.00 0.00 0.00 47 1014.0
20260902031555 69 0 0.0 0.0 0.00 0.00 0.00 44 1013.8
20260902030054 71 0 0.0 0.9 0.00 0.00 0.00 41 1013.6
20260902024601 74 0 0.0 2.6 0.00 0.00 0.00 40 1013.5
20260902023058 75 25 0.0 1.7 0.00 0.00 0.00 39 1013.3
20260902021556 76 360 1.7 7.0 0.00 0.00 0.00 38 1013.3
20260902020058 76 360 1.7 5.2 0.00 0.00 0.00 37 1013.2
20260902014557 77 360 1.7 4.3 0.00 0.00 0.00 36 1013.0
20260902013056 79 263 1.7 7.0 0.00 0.00 0.00 35 1012.9
20260902011556 80 0 2.6 9.6 0.00 0.00 0.00 34 1012.9
20260902010109 80 240 3.5 8.7 0.00 0.00 0.00 34 1012.9
20260902004600 81 296 3.5 7.8 0.00 0.00 0.00 33 1012.9
20260902003103 83 224 2.6 7.8 0.00 0.00 0.00 32 1012.8
20260902001612 82 195 2.6 7.8 0.00 0.00 0.00 30 1012.8
20260902000055 82 239 0.9 7.0 0.00 0.00 0.00 31 1012.9
20260901234551 82 243 1.7 8.7 0.00 0.00 0.00 32 1013.0
20260901233100 82 290 1.7 7.8 0.00 0.00 0.00 30 1013.1
20260901231559 82 227 1.7 8.7 0.00 0.00 0.00 31 1013.2
20260901230104 82 244 1.7 10.4 0.00 0.00 0.00 32 1013.5
20260901224611 82 165 3.5 10.4 0.00 0.00 0.00 32 1013.5
20260901223056 82 228 3.5 9.6 0.00 0.00 0.00 33 1013.7
20260901221601 82 213 3.5 10.4 0.00 0.00 0.00 33 1013.8
20260901220055 82 263 1.7 9.6 0.00 0.00 0.00 33 1013.9
20260901214602 82 230 0.9 8.7 0.00 0.00 0.00 32 1014.2
20260901213116 81 306 2.6 8.7 0.00 0.00 0.00 33 1014.1
20260901211553 80 250 3.5 9.6 0.00 0.00 0.00 34 1014.3
20260901210116 80 295 1.7 6.1 0.00 0.00 0.00 33 1014.3
20260901204555 78 213 3.5 7.8 0.00 0.00 0.00 35 1014.6
20260901203055 78 236 3.5 9.6 0.00 0.00 0.00 35 1014.8
20260901201559 78 265 3.5 8.7 0.00 0.00 0.00 36 1014.9
20260901200111 78 194 4.3 8.7 0.00 0.00 0.00 38 1015.0
20260901194558 78 251 1.7 7.8 0.00 0.00 0.00 40 1015.2
20260901193057 78 344 2.6 8.7 0.00 0.00 0.00 42 1015.4
20260901191602 76 117 3.5 8.7 0.00 0.00 0.00 39 1015.6
20260901190104 76 0 2.6 7.8 0.00 0.00 0.00 44 1015.6